CAPE
83 76 323 429 577 467 227 134 454 1031 996 767 810 926 982 847 700 618 421 384 422 449
460 187 135 335 499 509 434 541 761 1027 1153 1055 1062 1273 1216 837 437 255 286 325 314 284
1196 758 378 275 463 438 479 574 609 837 1112 1170 1305 1411 1323 765 375 26 26 56 61 122
1736 1728 1647 1104 519 508 453 473 708 822 1072 1193 1366 1175 1041 579 109 0 0 0 0 0
1191 1201 1218 1345 1213 739 722 415 581 831 955 1145 1124 782 624 331 4 0 0 0 0 0
440 842 822 977 1114 954 775 646 404 370 417 535 660 509 216 12 0 0 0 0 0 0
0 0 145 531 494 613 567 329 251 314 375 525 532 118 14 0 0 0 0 0 0 0
0 0 0 0 57 334 313 146 13 91 305 342 97 17 5 0 0 0 0 0 0 0
0 0 0 0 0 0 47 308 197 22 16 5 6 4 0 0 0 0 0 0 0 0
0 0 4 0 0 0 0 0 153 221 115 77 34 13 0 0 0 0 0 0 0 0
0 0 0 0 0 0 0 0 0 9 165 164 122 53 39 12 0 0 0 0 0 0
0 0 0 0 0 0 0 0 0 2 15 11 81 62 17 16 4 0 0 0 0 0
0 0 0 0 0 0 0 0 0 0 0 0 0 0 0 0 0 0 0 5 0 0
0 0 0 0 0 0 0 0 0 0 0 0 0 0 0 0 0 0 0 0 0 0
CIN
-214 -165 -101 -113 -110 -101 -117 -151 -145 -130 -114 -114 -103 -83 -81 -83 -85 -92 -96 -81 -75 -61
-187 -174 -121 -106 -106 -92 -110 -132 -121 -115 -118 -113 -94 -80 -68 -75 -91 -114 -113 -100 -96 -82
-113 -123 -116 -126 -104 -101 -102 -116 -114 -110 -106 -99 -84 -70 -71 -84 -111 -137 -151 -154 -133 -110
-69 -54 -69 -88 -105 -89 -122 -126 -116 -103 -88 -80 -71 -76 -82 -100 -156 0 0 0 0 0
-135 -68 -52 -53 -69 -134 -98 -141 -115 -100 -84 -80 -91 -102 -86 -106 -143 0 0 0 0 0
-194 -133 -90 -75 -56 -90 -87 -109 -145 -136 -116 -120 -120 -101 -132 -124 0 0 0 0 0 0
0 0 -296 -134 -147 -141 -130 -125 -138 -137 -134 -122 -127 -157 -172 -26 0 0 0 0 0 0
0 0 0 0 -38 -143 -165 -216 -254 -134 -106 -102 -127 -150 -184 0 0 0 0 0 0 0
0 0 0 0 0 0 -165 -131 -155 -209 -223 -220 -198 -185 0 0 0 0 0 0 0 0
0 0 -34 0 0 0 0 0 -126 -136 -136 -133 -140 -183 0 0 0 0 0 0 0 0
0 0 0 0 0 0 0 0 0 -58 -92 -95 -127 -124 -92 -99 0 0 0 0 0 0
0 0 0 0 0 0 0 0 0 -29 -80 -68 -83 -91 -92 -76 -85 0 0 0 0 0
-4 0 0 0 0 0 0 0 0 0 0 0 0 0 0 0 0 0 0 -69 0 0
0 0 0 0 0 0 0 0 0 0 0 0 0 0 0 0 0 0 0 0 0 0
Wind_Speed
14 15 15 15 14 14 12 10 9 8 6 5 3 3 5 7 8 10 11 13 15 16
17 17 17 16 16 16 15 14 13 12 10 10 9 7 7 9 10 12 14 15 17 18
18 19 19 20 19 18 18 18 17 16 15 15 14 12 10 11 13 13 15 17 17 18
17 18 19 20 22 22 22 20 19 18 17 17 16 14 13 13 14 15 16 17 18 18
21 23 22 22 21 21 20 20 20 21 19 18 18 16 16 16 17 18 17 17 18 19
25 26 27 22 21 21 22 22 22 21 21 20 19 18 18 18 18 18 19 18 18 19
24 24 26 27 26 27 24 25 27 25 23 21 20 19 19 19 19 19 20 20 19 18
26 28 23 25 25 27 24 19 26 26 23 21 20 20 20 20 20 21 21 20 20 19
38 36 32 26 29 26 24 26 25 28 27 25 22 21 20 20 20 21 23 24 23 22
40 46 47 33 34 29 27 27 27 29 29 28 25 23 24 22 21 22 24 25 25 25
42 43 41 39 42 37 36 38 34 32 29 29 29 28 27 27 26 24 20 22 25 29
40 41 41 40 41 37 37 44 42 35 33 32 31 31 31 30 28 29 28 24 23 25
39 39 37 36 34 33 34 34 35 35 32 33 32 33 33 33 32 32 32 33 33 30
31 31 33 34 35 35 36 35 35 36 33 35 38 39 38 36 33 34 37 38 38 35
Wind_Direction
248 249 245 234 235 229 234 232 236 221 233 241 252 295 328 343 352 2 6 3 358 355
258 258 248 244 238 238 242 252 245 242 244 254 261 276 296 315 328 339 344 349 349 347
259 261 255 253 245 246 250 255 249 247 252 261 265 272 280 298 313 326 332 338 344 344
262 264 261 254 252 252 255 253 249 246 249 256 260 263 271 287 302 313 321 327 333 342
283 274 269 263 258 254 249 252 252 251 250 252 256 262 271 283 294 302 309 318 326 332
284 280 279 273 263 259 255 253 252 251 255 252 252 258 267 278 287 294 301 309 317 325
297 292 289 284 279 271 265 261 259 257 254 253 252 257 265 275 283 289 295 300 306 315
289 296 299 302 295 279 277 271 265 260 254 251 251 258 265 271 277 284 290 294 297 303
281 286 286 296 292 290 286 274 266 266 265 264 265 266 266 271 277 283 285 287 291 295
278 274 275 285 278 285 293 287 276 266 266 266 268 272 275 275 278 284 285 284 286 288
281 281 281 276 273 275 285 279 279 275 273 269 269 271 271 280 276 284 286 284 284 282
283 281 280 276 273 276 271 270 273 276 276 274 274 273 271 272 278 280 281 282 282 283
286 282 283 280 277 277 273 271 272 274 275 274 275 276 276 275 278 280 278 277 278 281
288 286 283 279 280 279 277 276 275 276 277 277 272 271 274 276 280 278 276 276 276 277